JES3503 SASA-SAZN

Flight info

Callsign JES3503
Flight time 2h 24m
Altitude 34000
Route MUBOK2G PONPI UN525 TUC UZ108 GILSA/N0457F360 UZ108 ESITO/N0457F350 UW37 ARVET DCT KOTOG KOTOG3Q
Aircraft A320/M-SDE3FGHIRWY/LB1

Departure

Time 2026-04-28 19:03
Airport Martín Miguel de Güemes International Airport (SASA)

Arrival

Time 2026-04-28 21:27
Airport Presidente Perón International Airport (SAZN)
Time Latitude Longitude Altitude Speed Heading
2026-04-28 19:01 -24.84595 -65.48287 4017 ft 0 kts 252°
2026-04-28 19:01 -24.84596 -65.48289 4017 ft 1 kts 252°
2026-04-28 19:01 -24.84601 -65.48305 4017 ft 6 kts 250°
2026-04-28 19:01 -24.84649 -65.48373 4017 ft 13 kts 231°
2026-04-28 19:02 -24.84671 -65.48428 4017 ft 4 kts 200°
2026-04-28 19:02 -24.84697 -65.48433 4017 ft 4 kts 186°
2026-04-28 19:02 -24.84703 -65.48433 4017 ft 0 kts 188°
2026-04-28 19:02 -24.84881 -65.48470 4018 ft 64 kts 192°
2026-04-28 19:03 -24.85543 -65.48610 4019 ft 127 kts 191°
2026-04-28 19:03 -24.86583 -65.48825 4083 ft 171 kts 189°
2026-04-28 19:03 -24.87759 -65.49045 4817 ft 175 kts 187°
2026-04-28 19:03 -24.89017 -65.49269 5330 ft 188 kts 189°
2026-04-28 19:04 -24.90379 -65.49558 5495 ft 212 kts 191°
2026-04-28 19:04 -24.91920 -65.49920 5626 ft 240 kts 191°
2026-04-28 19:04 -24.93590 -65.50301 6251 ft 249 kts 191°
2026-04-28 19:04 -24.95307 -65.50702 6950 ft 255 kts 191°
2026-04-28 19:05 -24.97050 -65.51088 7695 ft 257 kts 185°
2026-04-28 19:05 -24.98869 -65.50914 8086 ft 276 kts 165°
2026-04-28 19:05 -25.00763 -65.50267 8531 ft 290 kts 161°
2026-04-28 19:05 -25.02730 -65.49637 9188 ft 298 kts 165°
2026-04-28 19:06 -25.04757 -65.49088 9891 ft 302 kts 166°
2026-04-28 19:06 -25.06847 -65.48560 10185 ft 321 kts 167°
2026-04-28 19:06 -25.09114 -65.48026 10275 ft 345 kts 168°
2026-04-28 19:06 -25.11539 -65.47478 10398 ft 365 kts 168°
2026-04-28 19:07 -25.14066 -65.46902 10772 ft 374 kts 168°
2026-04-28 19:07 -25.16627 -65.46299 11312 ft 378 kts 169°
2026-04-28 19:07 -25.19214 -65.45672 11852 ft 382 kts 169°
2026-04-28 19:07 -25.21816 -65.45029 12417 ft 385 kts 169°
2026-04-28 19:08 -25.24436 -65.44372 12974 ft 387 kts 169°
2026-04-28 19:08 -25.27074 -65.43707 13498 ft 391 kts 169°
2026-04-28 19:08 -25.29732 -65.43039 14010 ft 393 kts 170°
2026-04-28 19:08 -25.32410 -65.42368 14464 ft 396 kts 170°
2026-04-28 19:09 -25.35103 -65.41693 14944 ft 398 kts 171°
2026-04-28 19:09 -25.37809 -65.41016 15448 ft 400 kts 171°
2026-04-28 19:09 -25.40533 -65.40336 15938 ft 402 kts 171°
2026-04-28 19:09 -25.43268 -65.39651 16444 ft 404 kts 171°
2026-04-28 19:10 -25.46017 -65.38961 16952 ft 406 kts 171°
2026-04-28 19:10 -25.48783 -65.38265 17449 ft 409 kts 172°
2026-04-28 19:10 -25.51559 -65.37569 17954 ft 411 kts 172°
2026-04-28 19:10 -25.54356 -65.36868 18453 ft 413 kts 172°
2026-04-28 19:11 -25.57170 -65.36162 18899 ft 416 kts 172°
2026-04-28 19:11 -25.59996 -65.35452 19356 ft 418 kts 172°
2026-04-28 19:11 -25.62837 -65.34739 19800 ft 420 kts 172°
2026-04-28 19:11 -25.65697 -65.34023 20201 ft 423 kts 173°
2026-04-28 19:12 -25.68580 -65.33303 20632 ft 425 kts 173°
2026-04-28 19:12 -25.71474 -65.32578 21037 ft 427 kts 173°
2026-04-28 19:12 -25.74380 -65.31845 21453 ft 430 kts 173°
2026-04-28 19:12 -25.77304 -65.31136 21843 ft 432 kts 175°
2026-04-28 19:13 -25.80261 -65.30517 22254 ft 432 kts 176°
2026-04-28 19:13 -25.83236 -65.29967 22631 ft 434 kts 178°
2026-04-28 19:13 -25.86227 -65.29448 23083 ft 435 kts 177°
2026-04-28 19:13 -25.89220 -65.28932 23549 ft 435 kts 177°
2026-04-28 19:14 -25.92218 -65.28405 23902 ft 437 kts 177°
2026-04-28 19:14 -25.95233 -65.27855 24180 ft 441 kts 177°
2026-04-28 19:14 -25.98272 -65.27285 24458 ft 444 kts 177°
2026-04-28 19:14 -26.01327 -65.26702 24733 ft 447 kts 177°
2026-04-28 19:15 -26.04348 -65.26123 25007 ft 449 kts 177°
2026-04-28 19:15 -26.07485 -65.25525 25293 ft 452 kts 177°
2026-04-28 19:15 -26.10596 -65.24935 25571 ft 455 kts 177°
2026-04-28 19:15 -26.12665 -65.24543 25798 ft 456 kts 177°
2026-04-28 19:16 -26.16806 -65.23758 26367 ft 455 kts 177°
2026-04-28 19:16 -26.19921 -65.23167 26786 ft 454 kts 177°
2026-04-28 19:16 -26.23040 -65.22574 27203 ft 454 kts 178°
2026-04-28 19:16 -26.26153 -65.21985 27622 ft 454 kts 178°
2026-04-28 19:17 -26.29260 -65.21397 28046 ft 454 kts 178°
2026-04-28 19:17 -26.32373 -65.20805 28498 ft 454 kts 178°
2026-04-28 19:17 -26.35489 -65.20211 28914 ft 453 kts 178°
2026-04-28 19:17 -26.38596 -65.19617 29327 ft 454 kts 178°
2026-04-28 19:18 -26.41707 -65.19024 29762 ft 453 kts 178°
2026-04-28 19:18 -26.44816 -65.18433 30186 ft 453 kts 179°
2026-04-28 19:18 -26.47919 -65.17845 30557 ft 453 kts 179°
2026-04-28 19:18 -26.51030 -65.17252 30921 ft 453 kts 179°
2026-04-28 19:19 -26.54137 -65.16660 31314 ft 452 kts 179°
2026-04-28 19:19 -26.57241 -65.16069 31675 ft 452 kts 179°
2026-04-28 19:19 -26.60338 -65.15479 32047 ft 452 kts 179°
2026-04-28 19:19 -26.63435 -65.14889 32423 ft 452 kts 180°
2026-04-28 19:20 -26.66534 -65.14298 32781 ft 450 kts 180°
2026-04-28 19:20 -26.69623 -65.13709 33098 ft 451 kts 180°
2026-04-28 19:20 -26.72713 -65.13116 33501 ft 450 kts 180°
2026-04-28 19:20 -26.75790 -65.12525 33898 ft 449 kts 180°
2026-04-28 19:21 -26.78872 -65.11935 34119 ft 450 kts 180°
2026-04-28 19:21 -26.81951 -65.11490 34081 ft 440 kts 187°
2026-04-28 19:21 -26.84961 -65.11548 34087 ft 427 kts 196°
2026-04-28 19:21 -26.87857 -65.12086 34085 ft 416 kts 204°
2026-04-28 19:22 -26.92399 -65.13672 34084 ft 411 kts 207°
2026-04-28 19:22 -26.98772 -65.15976 34077 ft 412 kts 207°
2026-04-28 19:23 -27.04225 -65.17940 34069 ft 412 kts 207°
2026-04-28 19:23 -27.09673 -65.19918 34061 ft 411 kts 207°
2026-04-28 19:24 -27.15117 -65.21902 34056 ft 412 kts 207°
2026-04-28 19:24 -27.20570 -65.23887 34047 ft 412 kts 207°
2026-04-28 19:25 -27.26028 -65.25873 34046 ft 412 kts 206°
2026-04-28 19:25 -27.31484 -65.27859 34050 ft 412 kts 206°
2026-04-28 19:26 -27.36944 -65.29853 34054 ft 413 kts 206°
2026-04-28 19:26 -27.42412 -65.31849 34056 ft 413 kts 206°
2026-04-28 19:27 -27.47885 -65.33844 34051 ft 413 kts 205°
2026-04-28 19:27 -27.53354 -65.35838 34052 ft 413 kts 205°
2026-04-28 19:28 -27.58822 -65.37840 34052 ft 413 kts 205°
2026-04-28 19:28 -27.64291 -65.39844 34050 ft 413 kts 205°
2026-04-28 19:29 -27.68833 -65.41510 34052 ft 413 kts 204°
2026-04-28 19:29 -27.72333 -65.43169 34049 ft 404 kts 215°
2026-04-28 19:29 -27.74657 -65.44899 34050 ft 399 kts 221°
2026-04-28 19:30 -27.79165 -65.48565 34051 ft 399 kts 220°
2026-04-28 19:30 -27.83678 -65.52219 34048 ft 399 kts 220°
2026-04-28 19:31 -27.88185 -65.55876 34047 ft 399 kts 219°
2026-04-28 19:31 -27.92690 -65.59532 34045 ft 398 kts 219°
2026-04-28 19:32 -27.97192 -65.63184 34046 ft 398 kts 219°
2026-04-28 19:32 -28.01653 -65.66816 34044 ft 397 kts 218°
2026-04-28 19:33 -28.06157 -65.70490 34040 ft 396 kts 218°
2026-04-28 19:33 -28.10632 -65.74128 34039 ft 396 kts 218°
2026-04-28 19:34 -28.15108 -65.77779 34031 ft 396 kts 217°
2026-04-28 19:34 -28.19540 -65.81400 34028 ft 395 kts 217°
2026-04-28 19:35 -28.23995 -65.85044 34024 ft 395 kts 217°
2026-04-28 19:35 -28.28443 -65.88684 34033 ft 394 kts 216°
2026-04-28 19:36 -28.32885 -65.92325 34026 ft 393 kts 216°
2026-04-28 19:36 -28.37307 -65.95960 34028 ft 392 kts 216°
2026-04-28 19:37 -28.41007 -65.99000 34027 ft 391 kts 215°
2026-04-28 19:37 -28.46130 -66.03209 34028 ft 391 kts 214°
2026-04-28 19:38 -28.50532 -66.06824 34013 ft 390 kts 214°
2026-04-28 19:38 -28.54925 -66.10440 34016 ft 389 kts 214°
2026-04-28 19:39 -28.59298 -66.14053 34008 ft 388 kts 213°
2026-04-28 19:39 -28.63664 -66.17661 34007 ft 387 kts 213°
2026-04-28 19:40 -28.68022 -66.21268 34002 ft 387 kts 213°
2026-04-28 19:40 -28.72370 -66.24865 34000 ft 386 kts 212°
2026-04-28 19:41 -28.76707 -66.28453 33998 ft 385 kts 212°
2026-04-28 19:41 -28.81031 -66.32037 33996 ft 384 kts 212°
2026-04-28 19:42 -28.84615 -66.35010 33996 ft 383 kts 211°
2026-04-28 19:42 -28.88913 -66.38579 33998 ft 382 kts 211°
2026-04-28 19:43 -28.93203 -66.42140 33999 ft 381 kts 211°
2026-04-28 19:43 -28.97481 -66.45698 34001 ft 380 kts 211°
2026-04-28 19:44 -29.01747 -66.49257 34001 ft 380 kts 210°
2026-04-28 19:44 -29.06009 -66.52819 34008 ft 379 kts 210°
2026-04-28 19:45 -29.10261 -66.56368 34003 ft 378 kts 210°
2026-04-28 19:45 -29.14504 -66.59915 34013 ft 378 kts 210°
2026-04-28 19:46 -29.18749 -66.63469 34028 ft 377 kts 210°
2026-04-28 19:46 -29.23003 -66.67036 34036 ft 377 kts 210°
2026-04-28 19:47 -29.27231 -66.70578 34050 ft 376 kts 209°
2026-04-28 19:47 -29.31418 -66.74092 34057 ft 375 kts 209°
2026-04-28 19:48 -29.35620 -66.77627 34056 ft 375 kts 209°
2026-04-28 19:48 -29.39860 -66.81160 34058 ft 373 kts 207°
2026-04-28 19:49 -29.44207 -66.84377 34058 ft 371 kts 205°
2026-04-28 19:49 -29.48606 -66.87460 34046 ft 370 kts 205°
2026-04-28 19:50 -29.55167 -66.92160 34027 ft 371 kts 205°
2026-04-28 19:51 -29.59520 -66.95335 34007 ft 371 kts 205°
2026-04-28 19:51 -29.63878 -66.98516 33988 ft 371 kts 205°
2026-04-28 19:52 -29.68238 -67.01689 33980 ft 371 kts 205°
2026-04-28 19:52 -29.72606 -67.04868 33980 ft 372 kts 205°
2026-04-28 19:53 -29.76974 -67.08060 33974 ft 372 kts 206°
2026-04-28 19:53 -29.81342 -67.11263 33978 ft 373 kts 205°
2026-04-28 19:54 -29.85723 -67.14471 33970 ft 373 kts 205°
2026-04-28 19:54 -29.90100 -67.17671 33974 ft 373 kts 206°
2026-04-28 19:55 -29.94484 -67.20889 33973 ft 374 kts 206°
2026-04-28 19:55 -29.98841 -67.24089 33971 ft 374 kts 206°
2026-04-28 19:56 -30.03240 -67.27320 33971 ft 375 kts 206°
2026-04-28 19:56 -30.07640 -67.30558 33971 ft 375 kts 206°
2026-04-28 19:57 -30.12034 -67.33799 33971 ft 376 kts 206°
2026-04-28 19:57 -30.14250 -67.35432 34248 ft 376 kts 206°
2026-04-28 19:57 -30.16451 -67.37058 34585 ft 375 kts 206°
2026-04-28 19:57 -30.18645 -67.38682 34898 ft 374 kts 206°
2026-04-28 19:58 -30.20837 -67.40303 35201 ft 374 kts 206°
2026-04-28 19:58 -30.23031 -67.41924 35477 ft 373 kts 206°
2026-04-28 19:58 -30.25220 -67.43539 35747 ft 373 kts 206°
2026-04-28 19:58 -30.27409 -67.45153 35913 ft 373 kts 206°
2026-04-28 19:59 -30.29615 -67.46779 35951 ft 378 kts 206°
2026-04-28 19:59 -30.34116 -67.50101 35943 ft 388 kts 207°
2026-04-28 20:00 -30.38665 -67.53482 35944 ft 389 kts 207°
2026-04-28 20:00 -30.43221 -67.56874 35936 ft 389 kts 207°
2026-04-28 20:01 -30.47782 -67.60262 35935 ft 389 kts 207°
2026-04-28 20:01 -30.52456 -67.63362 35930 ft 383 kts 197°
2026-04-28 20:02 -30.57517 -67.65198 35905 ft 381 kts 193°
2026-04-28 20:02 -30.62590 -67.66978 35917 ft 382 kts 193°
2026-04-28 20:03 -30.67673 -67.68774 35925 ft 382 kts 194°
2026-04-28 20:03 -30.72760 -67.70571 35924 ft 382 kts 194°
2026-04-28 20:04 -30.77840 -67.72373 35920 ft 382 kts 194°
2026-04-28 20:04 -30.82925 -67.74177 35917 ft 382 kts 194°
2026-04-28 20:05 -30.87983 -67.75965 35919 ft 382 kts 194°
2026-04-28 20:05 -30.93070 -67.77768 35916 ft 382 kts 194°
2026-04-28 20:06 -30.98158 -67.79576 35915 ft 382 kts 194°
2026-04-28 20:06 -31.03244 -67.81386 35912 ft 382 kts 194°
2026-04-28 20:07 -31.08333 -67.83198 35907 ft 382 kts 195°
2026-04-28 20:07 -31.13427 -67.85008 35911 ft 383 kts 194°
2026-04-28 20:08 -31.18525 -67.86822 35910 ft 383 kts 194°
2026-04-28 20:08 -31.23622 -67.88646 35912 ft 383 kts 194°
2026-04-28 20:09 -31.28717 -67.90469 35918 ft 383 kts 194°
2026-04-28 20:09 -31.33825 -67.92287 35922 ft 383 kts 194°
2026-04-28 20:10 -31.38925 -67.94109 35914 ft 383 kts 195°
2026-04-28 20:10 -31.44015 -67.95935 35912 ft 382 kts 195°
2026-04-28 20:11 -31.49095 -67.97765 35902 ft 382 kts 195°
2026-04-28 20:11 -31.54188 -67.99600 35898 ft 383 kts 195°
2026-04-28 20:12 -31.59276 -68.01435 35897 ft 383 kts 195°
2026-04-28 20:12 -31.64359 -68.03263 35900 ft 383 kts 195°
2026-04-28 20:13 -31.69461 -68.05103 35902 ft 383 kts 195°
2026-04-28 20:13 -31.74547 -68.06933 35899 ft 383 kts 195°
2026-04-28 20:14 -31.79633 -68.08774 35896 ft 383 kts 195°
2026-04-28 20:14 -31.84722 -68.10619 35895 ft 382 kts 195°
2026-04-28 20:15 -31.89809 -68.12465 35891 ft 382 kts 195°
2026-04-28 20:15 -31.94886 -68.14304 35891 ft 382 kts 195°
2026-04-28 20:16 -31.99978 -68.16152 35895 ft 382 kts 196°
2026-04-28 20:16 -32.05059 -68.17999 35897 ft 382 kts 196°
2026-04-28 20:17 -32.10136 -68.19844 35893 ft 382 kts 196°
2026-04-28 20:17 -32.15214 -68.21694 35891 ft 382 kts 196°
2026-04-28 20:18 -32.20283 -68.23550 35892 ft 382 kts 196°
2026-04-28 20:18 -32.25355 -68.25402 35892 ft 382 kts 196°
2026-04-28 20:19 -32.28717 -68.26631 35891 ft 381 kts 196°
2026-04-28 20:19 -32.34645 -68.28799 35893 ft 381 kts 196°
2026-04-28 20:20 -32.45599 -68.32812 35899 ft 381 kts 197°
2026-04-28 20:21 -32.50661 -68.34675 35898 ft 381 kts 197°
2026-04-28 20:21 -32.55725 -68.36539 35897 ft 381 kts 197°
2026-04-28 20:22 -32.59929 -68.38084 35897 ft 381 kts 197°
2026-04-28 20:22 -32.65832 -68.40258 35897 ft 381 kts 197°
2026-04-28 20:23 -32.70888 -68.42130 35899 ft 381 kts 197°
2026-04-28 20:23 -32.75944 -68.43998 35901 ft 381 kts 197°
2026-04-28 20:24 -32.81004 -68.45869 35900 ft 381 kts 197°
2026-04-28 20:24 -32.85204 -68.47421 35903 ft 381 kts 197°
2026-04-28 20:25 -32.90272 -68.49289 35901 ft 381 kts 197°
2026-04-28 20:25 -32.95333 -68.51171 35901 ft 381 kts 198°
2026-04-28 20:26 -33.00391 -68.53059 35896 ft 381 kts 198°
2026-04-28 20:26 -33.05451 -68.54943 35892 ft 381 kts 198°
2026-04-28 20:27 -33.10521 -68.56829 35890 ft 381 kts 198°
2026-04-28 20:27 -33.15547 -68.58703 35887 ft 381 kts 198°
2026-04-28 20:28 -33.20649 -68.60609 35890 ft 382 kts 198°
2026-04-28 20:28 -33.25719 -68.62507 35892 ft 382 kts 198°
2026-04-28 20:29 -33.30788 -68.64404 35890 ft 382 kts 198°
2026-04-28 20:29 -33.35823 -68.66289 35889 ft 382 kts 198°
2026-04-28 20:30 -33.40892 -68.68192 35892 ft 382 kts 198°
2026-04-28 20:30 -33.45960 -68.70102 35888 ft 382 kts 198°
2026-04-28 20:31 -33.51024 -68.72008 35892 ft 382 kts 198°
2026-04-28 20:31 -33.56092 -68.73914 35892 ft 382 kts 198°
2026-04-28 20:32 -33.61159 -68.75822 35891 ft 382 kts 199°
2026-04-28 20:32 -33.66227 -68.77739 35893 ft 382 kts 199°
2026-04-28 20:33 -33.71294 -68.79665 35895 ft 382 kts 199°
2026-04-28 20:33 -33.76358 -68.81589 35894 ft 382 kts 199°
2026-04-28 20:34 -33.81432 -68.83513 35888 ft 382 kts 199°
2026-04-28 20:34 -33.86541 -68.85275 35890 ft 384 kts 191°
2026-04-28 20:34 -33.89223 -68.85444 35886 ft 389 kts 180°
2026-04-28 20:35 -33.91915 -68.84914 35887 ft 397 kts 169°
2026-04-28 20:35 -33.94502 -68.83660 35879 ft 407 kts 158°
2026-04-28 20:35 -33.96976 -68.81968 35876 ft 409 kts 158°
2026-04-28 20:36 -34.01933 -68.78582 35874 ft 409 kts 158°
2026-04-28 20:36 -34.06898 -68.75213 35875 ft 410 kts 158°
2026-04-28 20:37 -34.11872 -68.71834 35874 ft 410 kts 158°
2026-04-28 20:37 -34.16848 -68.68430 35873 ft 411 kts 158°
2026-04-28 20:38 -34.21820 -68.65022 35871 ft 411 kts 158°
2026-04-28 20:38 -34.26801 -68.61612 35871 ft 411 kts 158°
2026-04-28 20:39 -34.31776 -68.58198 35870 ft 412 kts 158°
2026-04-28 20:39 -34.36757 -68.54771 35870 ft 412 kts 158°
2026-04-28 20:40 -34.41744 -68.51344 35869 ft 412 kts 158°
2026-04-28 20:40 -34.46729 -68.47910 35868 ft 413 kts 158°
2026-04-28 20:41 -34.51721 -68.44463 35855 ft 413 kts 158°
2026-04-28 20:41 -34.54217 -68.42737 35658 ft 412 kts 158°
2026-04-28 20:41 -34.56740 -68.41098 35077 ft 408 kts 163°
2026-04-28 20:41 -34.59387 -68.39962 34876 ft 402 kts 172°
2026-04-28 20:42 -34.62119 -68.39364 34857 ft 399 kts 180°
2026-04-28 20:42 -34.67677 -68.39037 34867 ft 400 kts 182°
2026-04-28 20:43 -34.73245 -68.38732 34864 ft 401 kts 182°
2026-04-28 20:43 -34.78817 -68.38438 34861 ft 401 kts 182°
2026-04-28 20:44 -34.84404 -68.38149 34856 ft 402 kts 182°
2026-04-28 20:44 -34.89995 -68.37854 34853 ft 402 kts 182°
2026-04-28 20:45 -34.95591 -68.37560 34851 ft 402 kts 183°
2026-04-28 20:45 -35.01186 -68.37269 34854 ft 403 kts 183°
2026-04-28 20:46 -35.06785 -68.36969 34854 ft 403 kts 183°
2026-04-28 20:46 -35.12378 -68.36670 34852 ft 403 kts 183°
2026-04-28 20:47 -35.17981 -68.36375 34851 ft 403 kts 183°
2026-04-28 20:47 -35.23545 -68.36081 34857 ft 403 kts 183°
2026-04-28 20:48 -35.29153 -68.35786 34856 ft 403 kts 183°
2026-04-28 20:48 -35.34764 -68.35493 34859 ft 404 kts 183°
2026-04-28 20:49 -35.40388 -68.35202 34859 ft 404 kts 183°
2026-04-28 20:49 -35.46014 -68.34901 34860 ft 405 kts 183°
2026-04-28 20:50 -35.51644 -68.34602 34864 ft 405 kts 183°
2026-04-28 20:50 -35.57269 -68.34303 34873 ft 404 kts 183°
2026-04-28 20:51 -35.62890 -68.33999 34864 ft 404 kts 184°
2026-04-28 20:51 -35.68470 -68.33703 34862 ft 404 kts 184°
2026-04-28 20:52 -35.74122 -68.33399 34869 ft 404 kts 184°
2026-04-28 20:52 -35.79731 -68.33100 34861 ft 403 kts 184°
2026-04-28 20:53 -35.87192 -68.32687 34856 ft 403 kts 184°
2026-04-28 20:53 -35.93740 -68.32338 34843 ft 403 kts 184°
2026-04-28 20:54 -35.99295 -68.32045 34831 ft 403 kts 184°
2026-04-28 20:54 -36.04898 -68.31745 34824 ft 403 kts 184°
2026-04-28 20:55 -36.10493 -68.31445 34819 ft 403 kts 184°
2026-04-28 20:55 -36.16096 -68.31147 34815 ft 403 kts 184°
2026-04-28 20:56 -36.21702 -68.30842 34811 ft 403 kts 184°
2026-04-28 20:56 -36.27311 -68.30531 34807 ft 404 kts 185°
2026-04-28 20:57 -36.32917 -68.30224 34808 ft 404 kts 185°
2026-04-28 20:57 -36.38545 -68.29925 34809 ft 404 kts 185°
2026-04-28 20:58 -36.44169 -68.29630 34804 ft 405 kts 185°
2026-04-28 20:58 -36.49797 -68.29325 34805 ft 405 kts 185°
2026-04-28 20:59 -36.55433 -68.29022 34804 ft 406 kts 185°
2026-04-28 20:59 -36.61074 -68.28718 34802 ft 406 kts 185°
2026-04-28 21:00 -36.66724 -68.28405 34805 ft 407 kts 185°
2026-04-28 21:00 -36.72385 -68.28077 34808 ft 407 kts 185°
2026-04-28 21:01 -36.78052 -68.27765 34808 ft 408 kts 186°
2026-04-28 21:01 -36.83719 -68.27458 34809 ft 408 kts 186°
2026-04-28 21:02 -36.88478 -68.27199 34807 ft 409 kts 186°
2026-04-28 21:02 -36.95083 -68.26834 34815 ft 409 kts 186°
2026-04-28 21:03 -37.00769 -68.26521 34819 ft 409 kts 186°
2026-04-28 21:03 -37.06465 -68.26195 34824 ft 410 kts 186°
2026-04-28 21:04 -37.12175 -68.25880 34824 ft 410 kts 186°
2026-04-28 21:04 -37.17893 -68.25576 34820 ft 411 kts 186°
2026-04-28 21:05 -37.23606 -68.25260 34817 ft 412 kts 186°
2026-04-28 21:05 -37.29328 -68.24935 34817 ft 412 kts 187°
2026-04-28 21:06 -37.35063 -68.24611 34815 ft 412 kts 187°
2026-04-28 21:06 -37.37931 -68.24452 34614 ft 413 kts 187°
2026-04-28 21:06 -37.40804 -68.24292 34380 ft 414 kts 187°
2026-04-28 21:07 -37.43687 -68.24132 34145 ft 415 kts 187°
2026-04-28 21:07 -37.45596 -68.24026 33993 ft 415 kts 187°
2026-04-28 21:07 -37.48488 -68.23866 33516 ft 417 kts 187°
2026-04-28 21:07 -37.51410 -68.23709 32561 ft 423 kts 186°
2026-04-28 21:08 -37.54369 -68.23547 31695 ft 428 kts 186°
2026-04-28 21:08 -37.57362 -68.23378 30763 ft 434 kts 185°
2026-04-28 21:08 -37.60399 -68.23208 29794 ft 440 kts 185°
2026-04-28 21:08 -37.63482 -68.23036 28682 ft 446 kts 185°
2026-04-28 21:09 -37.66595 -68.22859 27576 ft 450 kts 184°
2026-04-28 21:09 -37.69748 -68.22676 26419 ft 456 kts 184°
2026-04-28 21:09 -37.72936 -68.22491 25400 ft 460 kts 184°
2026-04-28 21:09 -37.76115 -68.22304 24678 ft 455 kts 183°
2026-04-28 21:10 -37.79266 -68.22117 23875 ft 452 kts 183°
2026-04-28 21:10 -37.82389 -68.21933 23024 ft 450 kts 183°
2026-04-28 21:10 -37.85499 -68.21752 22208 ft 445 kts 183°
2026-04-28 21:10 -37.88579 -68.21574 21432 ft 440 kts 183°
2026-04-28 21:11 -37.91626 -68.21400 20676 ft 435 kts 183°
2026-04-28 21:11 -37.94633 -68.21228 19904 ft 431 kts 183°
2026-04-28 21:11 -37.97598 -68.21057 19169 ft 427 kts 183°
2026-04-28 21:11 -38.00576 -68.20886 18450 ft 423 kts 183°
2026-04-28 21:12 -38.03499 -68.20720 17704 ft 419 kts 183°
2026-04-28 21:12 -38.06390 -68.20558 17028 ft 413 kts 183°
2026-04-28 21:12 -38.09203 -68.20403 16411 ft 407 kts 184°
2026-04-28 21:12 -38.12014 -68.20246 15795 ft 402 kts 184°
2026-04-28 21:13 -38.14796 -68.20090 15181 ft 398 kts 184°
2026-04-28 21:13 -38.17552 -68.19937 14561 ft 394 kts 184°
2026-04-28 21:13 -38.20279 -68.19783 13946 ft 391 kts 184°
2026-04-28 21:13 -38.22982 -68.19627 13278 ft 388 kts 184°
2026-04-28 21:14 -38.25703 -68.19469 12604 ft 383 kts 184°
2026-04-28 21:14 -38.28313 -68.19314 11963 ft 379 kts 184°
2026-04-28 21:14 -38.30938 -68.19161 11300 ft 376 kts 184°
2026-04-28 21:14 -38.33569 -68.19007 10739 ft 370 kts 184°
2026-04-28 21:15 -38.36078 -68.18853 10604 ft 352 kts 185°
2026-04-28 21:15 -38.38470 -68.18704 10483 ft 337 kts 185°
2026-04-28 21:15 -38.40731 -68.18567 10365 ft 323 kts 185°
2026-04-28 21:15 -38.42964 -68.18438 10231 ft 311 kts 185°
2026-04-28 21:16 -38.45090 -68.18046 10119 ft 310 kts 173°
2026-04-28 21:16 -38.47071 -68.17065 9993 ft 310 kts 161°
2026-04-28 21:16 -38.49000 -68.15809 9777 ft 304 kts 161°
2026-04-28 21:16 -38.50872 -68.14577 9655 ft 302 kts 161°
2026-04-28 21:17 -38.52738 -68.13347 9529 ft 302 kts 161°
2026-04-28 21:17 -38.54607 -68.12117 9233 ft 302 kts 161°
2026-04-28 21:17 -38.56483 -68.10889 8814 ft 303 kts 161°
2026-04-28 21:17 -38.58364 -68.09658 8401 ft 305 kts 161°
2026-04-28 21:18 -38.60232 -68.08432 8030 ft 305 kts 160°
2026-04-28 21:18 -38.62124 -68.07187 7636 ft 306 kts 160°
2026-04-28 21:18 -38.64015 -68.05940 7222 ft 308 kts 160°
2026-04-28 21:18 -38.65900 -68.04694 6956 ft 304 kts 160°
2026-04-28 21:19 -38.67805 -68.03433 6591 ft 304 kts 160°
2026-04-28 21:19 -38.69684 -68.02191 6249 ft 305 kts 160°
2026-04-28 21:19 -38.71551 -68.00959 5908 ft 305 kts 160°
2026-04-28 21:19 -38.73445 -67.99702 5734 ft 301 kts 160°
2026-04-28 21:20 -38.75302 -67.98472 5611 ft 301 kts 160°
2026-04-28 21:20 -38.77160 -67.97246 5491 ft 301 kts 160°
2026-04-28 21:20 -38.78998 -67.96035 5370 ft 301 kts 160°
2026-04-28 21:20 -38.80855 -67.94808 5254 ft 297 kts 160°
2026-04-28 21:21 -38.82664 -67.93605 5128 ft 289 kts 160°
2026-04-28 21:21 -38.84446 -67.92560 5001 ft 274 kts 172°
2026-04-28 21:21 -38.86251 -67.92180 4869 ft 254 kts 189°
2026-04-28 21:21 -38.87994 -67.92185 4510 ft 250 kts 190°
2026-04-28 21:22 -38.89737 -67.92195 4025 ft 249 kts 189°
2026-04-28 21:22 -38.91429 -67.92196 3818 ft 236 kts 188°
2026-04-28 21:22 -38.93024 -67.92231 3707 ft 221 kts 198°
2026-04-28 21:22 -38.93949 -67.92646 3629 ft 200 kts 224°
2026-04-28 21:23 -38.94888 -67.94321 3483 ft 161 kts 264°
2026-04-28 21:23 -38.94946 -67.95681 3326 ft 147 kts 275°
2026-04-28 21:23 -38.94943 -67.96978 3190 ft 144 kts 275°
2026-04-28 21:23 -38.94942 -67.98252 3078 ft 140 kts 275°
2026-04-28 21:24 -38.94940 -67.99511 2947 ft 141 kts 274°
2026-04-28 21:24 -38.94937 -68.00772 2816 ft 141 kts 275°
2026-04-28 21:24 -38.94936 -68.02034 2690 ft 141 kts 276°
2026-04-28 21:24 -38.94933 -68.03287 2557 ft 139 kts 277°
2026-04-28 21:25 -38.94928 -68.04527 2370 ft 139 kts 275°
2026-04-28 21:25 -38.94923 -68.05771 2165 ft 140 kts 277°
2026-04-28 21:25 -38.94918 -68.07030 1982 ft 141 kts 275°
2026-04-28 21:25 -38.94914 -68.08280 1806 ft 139 kts 274°
2026-04-28 21:26 -38.94909 -68.09529 1613 ft 140 kts 275°
2026-04-28 21:26 -38.94903 -68.10768 1457 ft 139 kts 273°
2026-04-28 21:26 -38.94905 -68.11988 1257 ft 137 kts 272°
2026-04-28 21:26 -38.94910 -68.13224 1061 ft 137 kts 274°
2026-04-28 21:27 -38.94903 -68.14443 916 ft 131 kts 272°
2026-04-28 21:27 -38.94897 -68.15414 904 ft 72 kts 270°
2026-04-28 21:27 -38.94900 -68.15741 908 ft 17 kts 269°
2026-04-28 21:27 -38.94906 -68.15796 905 ft 5 kts 105°
2026-04-28 21:28 -38.94903 -68.15713 909 ft 13 kts 89°
2026-04-28 21:28 -38.94899 -68.15543 905 ft 22 kts 88°
2026-04-28 21:28 -38.94898 -68.15348 903 ft 23 kts 91°
2026-04-28 21:28 -38.94909 -68.15143 902 ft 22 kts 102°
2026-04-28 21:29 -38.95003 -68.15002 903 ft 21 kts 139°
2026-04-28 21:29 -38.95089 -68.14861 903 ft 20 kts 96°
2026-04-28 21:29 -38.95094 -68.14685 904 ft 20 kts 88°
2026-04-28 21:29 -38.95091 -68.14509 904 ft 20 kts 91°
2026-04-28 21:30 -38.95094 -68.14327 904 ft 18 kts 90°
2026-04-28 21:30 -38.95092 -68.14205 904 ft 9 kts 89°
2026-04-28 21:30 -38.95114 -68.14151 905 ft 7 kts 171°
2026-04-28 21:30 -38.95139 -68.14157 904 ft 1 kts 184°
2026-04-28 21:31 -38.95150 -68.14157 904 ft 0 kts 182°